Location: Newark
(13.7497°N, 100.4964°E)
Time: 21:42:05
(UTC+00:00)

N. Korean satellite - Visible Passes

Search period start: 18 September 2019 00:00
Search period end: 28 September 2019 00:00
Orbit: 455 x 509 km, 97.2° (Epoch: 17 September)

Date Brightness Start Highest point End Pass type
(mag) Time Alt. Az. Time Alt. Az. Time Alt. Az.
18 Sep 10.1 11:37:10 10° SW 11:39:02 14° W 11:40:55 10° WNW visible
20 Sep 9.4 22:26:10 10° NE 22:28:52 22° E 22:31:36 10° SSE visible
23 Sep 7.9 22:43:15 10° NNE 22:46:33 44° E 22:49:54 10° S visible
24 Sep 9.7 22:19:02 10° ENE 22:21:21 17° E 22:23:41 10° SE visible
27 Sep 8.6 22:35:52 10° NE 22:39:01 33° E 22:42:14 10° SSE visible
